User: anonymous   Login
Location: Wien
(48.2082°N, 16.3738°E)
Time: 12:16:38
(UTC+01:00)
Language:

deb Explorer IX - Orbit

View from above orbital plane
View from above orbital plane
View from above satellite
View from above satellite

Ground track
Ground track

The orbit data is extracted from the following two-line orbital elements,

1 00085U 61004C   24051.32984905  .00010280  00000-0  14706-2 0  9997
2 00085  38.7458 281.9567 0281397 206.6274 151.9786 14.52773225123219
Epoch (UTC): 20 February 2024 07:54:58
Eccentricity: 0.0281397
inclination: 38.7458°
perigee height: 517 km
apogee height: 916 km
right ascension of ascending node: 281.9567°
argument of perigee: 206.6274°
revolutions per day: 14.52773225
mean anomaly at epoch: 151.9786°
orbit number at epoch: 12321

The dashed part of the orbit path shows where the satellite is in the earth's shadow,  

DLR